Location: Hiekkapohja
(62.3333°N, 25.7833°E)
Time: 06:44:55
(UTC+00:00)

Cosmos 1766 - Pass Details

Date: 07 August 2020
Orbit: 522 x 543 km, 82.5° (Epoch: 20 September)

Event Time Altitude Azimuth Distance (km) Brightness Sun altitude
Exits shadow 00:51:18 - 195° (SSW) 2,094 5.7 -6.1°
Reaches altitude 10° 00:52:04 10° 195° (SSW) 1,782 5.3 -6.0°
Maximum altitude 00:55:59 88° 287° (WNW) 538 3.3 -5.8°
Drops below altitude 10° 00:59:54 10° 15° (NNE) 1,784 7.3 -5.5°
Sets 01:02:03 0° 16° (NNE) 2,676 8.3 -5.3°
